Location: *
(43.8370°S, 128.9760°W)
Time: 05:07:25
(UTC+00:00)

Daily predictions for brighter satellites

Satellite Brightness Start Highest point End
(mag) Time Altitude Azimuth Time Altitude Azimuth Time Altitude Azimuth
RESURS DK-1 2.9 03:50:51 10° SSW 03:54:51 41° ESE 03:58:48 10° NE
Meteor 1-27 Rocket 3.9 03:49:00 10° N 03:54:53 78° E 04:00:55 10° SSE
Cosmos 1354 Rocket 4.1 03:49:44 10° NNW 03:55:00 88° ENE 04:00:20 10° SSE
DMSP B5D2-2 4.1 03:50:20 10° NNE 03:55:34 83° ESE 04:00:54 10° SSW
CSL-04 Rocket 4.0 03:50:20 10° SSE 03:55:46 48° E 04:01:08 10° N
Cosmos 1441 Rocket 3.9 03:52:09 10° SSW 03:55:54 58° W 03:59:37 10° N
Cosmos 1536 2.8 03:55:03 10° S 03:59:07 65° E 04:03:06 10° NNE
Envisat 4.4 03:54:34 10° S 03:59:29 45° WSW 04:04:20 10° NW
Cosmos 2278 4.1 03:55:22 10° SSW 04:01:08 71° WNW 04:06:50 10° NNE
[s.n.45227] 3.1 03:59:16 10° NW 04:02:19 51° NE 04:05:25 10° ESE
[s.n.45235] 3.1 03:59:18 10° NW 04:02:21 51° NE 04:05:28 10° ESE
STARLINK-1246 3.1 03:59:18 10° NW 04:02:21 51° NE 04:05:28 10° ESE
OAO 2 Rocket 4.4 03:58:33 10° WNW 04:02:52 30° N 04:07:09 10° ENE
Cosmos 773 Rocket 4.5 03:58:46 10° S 04:03:56 46° ESE 04:09:03 10° NE
Cosmos 2279 Rocket 4.2 03:59:40 10° S 04:05:54 54° ESE 04:12:02 10° NNE
SAR-Lupe-2 3.7 04:03:17 10° NNE 04:06:55 86° W 04:10:35 10° SSW
Cosmos 1733 Rocket 3.4 04:02:30 10° SSW 04:07:03 73° W 04:11:31 10° N
ATLAS 5 CENTAUR R/B 3.3 04:01:09 10° NW 04:08:13 63° SW 04:14:42 10° SSE
[s.n.45193] 2.9 04:05:08 10° NW 04:08:14 59° NE 04:11:24 10° ESE
MOS 1 Rocket 3.6 04:03:11 10° NNE 04:08:16 67° ESE 04:13:41 10° S
STARLINK-1241 2.9 04:05:11 10° NW 04:08:16 59° NE 04:11:26 10° ESE
[s.n.45195] 2.9 04:05:11 10° NW 04:08:16 59° NE 04:11:26 10° ESE
Cosmos 1184 Rocket 4.4 04:06:12 10° SSE 04:08:45 19° ESE 04:11:02 11° ENE
STARLINK-1239 2.9 04:05:58 10° NW 04:09:04 60° NE 04:12:14 10° ESE
Cosmos 1634 Rocket 4.1 04:02:54 10° S 04:09:14 90° E 04:15:32 10° N
[s.n.45192] 2.9 04:06:45 10° NW 04:09:51 61° NE 04:13:01 10° ESE
STARLINK-1240 2.9 04:06:47 10° NW 04:09:53 61° NE 04:13:03 10° ESE
STARLINK-1216 2.9 04:07:35 10° NW 04:10:41 62° NE 04:13:50 10° ESE
Cosmos 405 4.3 04:07:58 10° NE 04:10:43 21° E 04:13:29 10° SE
YAOGAN 1 2.6 04:06:41 10° SSE 04:11:07 86° ENE 04:15:29 10° NNW
[s.n.45190] 2.9 04:08:25 10° NW 04:11:32 63° NE 04:14:43 10° ESE
STARLINK-1237 2.9 04:08:28 10° NW 04:11:36 63° NE 04:14:46 10° ESE
STARLINK-1202 2.9 04:09:12 10° NW 04:12:19 65° NE 04:15:29 10° ESE
[s.n.45183] 2.9 04:09:12 10° NW 04:12:19 65° NE 04:15:29 10° ESE
CZ-4C R/B 3.6 04:08:12 10° SSW 04:12:59 24° SSE 04:17:11 10° E
CZ-2C R/B 4.4 04:10:26 10° SE 04:14:41 22° E 04:19:03 10° NE
[s.n.45185] 2.8 04:11:37 10° NW 04:14:46 68° NE 04:17:57 10° ESE
STARLINK-1224 2.8 04:11:41 10° NW 04:14:48 68° NE 04:18:00 10° ESE
[s.n.45186] 2.8 04:11:41 10° NW 04:14:48 68° NE 04:18:00 10° ESE
STARLINK-1225 2.8 04:12:28 10° NW 04:15:36 70° NE 04:18:48 10° ESE
[s.n.45187] 2.8 04:12:28 10° NW 04:15:36 70° NE 04:18:48 10° ESE
CSL-04 Debris 4.1 04:10:39 10° SSE 04:16:09 73° ENE 04:21:34 10° N
STARLINK-1230 2.8 04:13:21 10° NW 04:16:29 71° NE 04:19:41 10° ESE
[s.n.45189] 2.8 04:13:21 10° NW 04:16:29 71° NE 04:19:41 10° ESE
[s.n.45226] 2.8 04:14:05 10° NW 04:17:13 72° NE 04:20:25 10° ESE
[s.n.45234] 2.8 04:14:08 10° NW 04:17:16 72° NE 04:20:28 10° ESE
STARLINK-1243 2.8 04:14:08 10° NW 04:17:16 72° NE 04:20:28 10° ESE
[s.n.45191] 2.8 04:15:03 10° NW 04:18:11 74° NE 04:21:23 10° ESE
STARLINK-1236 2.8 04:15:03 10° NW 04:18:11 74° NE 04:21:23 10° ESE
STARLINK-1269 2.8 04:16:45 10° NW 04:19:54 77° NE 04:23:07 10° ESE
[s.n.45197] 2.8 04:16:45 10° NW 04:19:54 77° NE 04:23:07 10° ESE
OAO 3 Rocket 4.4 04:16:35 10° WNW 04:20:34 27° N 04:24:00 13° NE
Cosmos 1862 Rocket 4.2 04:16:10 10° NNW 04:20:37 62° W 04:25:10 10° S
STARLINK-1200 2.8 04:17:37 10° NW 04:20:46 78° NE 04:23:58 10° ESE
[s.n.45181] 2.8 04:17:37 10° NW 04:20:46 78° NE 04:23:58 10° ESE
[s.n.45180] 2.8 04:18:28 10° NW 04:21:38 80° NE 04:24:50 10° ESE
STARLINK-1192 2.8 04:18:31 10° NW 04:21:41 80° NE 04:24:54 10° ESE
[s.n.45194] 2.8 04:19:18 10° NW 04:22:28 81° NE 04:25:41 10° ESE
STARLINK-1244 2.8 04:19:21 10° NW 04:22:31 81° NE 04:25:44 10° ESE
[s.n.45196] 2.8 04:19:21 10° NW 04:22:31 81° NE 04:25:44 10° ESE
STARLINK-1235 2.6 04:19:45 10° NW 04:22:37 86° NE 04:25:33 10° SE
NOAA 11 4.4 04:17:20 10° SSE 04:22:56 83° WSW 04:28:27 10° NNW
STARLINK-1138 2.8 04:20:15 10° NW 04:23:25 83° NNE 04:26:39 10° ESE
[s.n.45178] 2.8 04:20:15 10° NW 04:23:25 83° NNE 04:26:39 10° ESE
STARLINK-1143 2.8 04:21:07 10° NW 04:24:17 84° NNE 04:27:30 10° ESE
[s.n.45179] 2.8 04:21:07 10° NW 04:24:17 84° NNE 04:27:30 10° ESE
Cosmos 1939 Rocket 3.2 04:20:38 10° S 04:24:40 70° WSW 04:28:43 10° NNW
Okean 1-7 3.3 04:23:44 10° NNE 04:28:00 48° E 04:32:19 10° SSE
Cosmos 2242 Rocket 3.7 04:23:39 10° N 04:28:16 89° WSW 04:32:55 10° S
Cosmos 2333 Rocket 4.3 04:26:11 10° SSE 04:28:17 12° SE 04:30:24 10° ESE
SL-27 R/B 2.3 04:25:10 10° NNW 04:28:35 73° ENE 04:32:08 10° SSE
Cosmos 2322 Rocket 2.8 04:23:59 10° SSW 04:29:24 42° ESE 04:33:37 16° ENE
Cosmos 1782 Rocket 4.0 04:25:47 10° S 04:30:02 43° ESE 04:33:45 13° NNE
CZ-2C R/B 3.1 04:26:17 10° N 04:31:27 61° W 04:36:39 10° SSW
BREEZE-M DEB (TANK) 1.7 04:28:36 10° W 04:31:47 59° S 04:33:20 16° ESE
CZ-4 R/B 3.0 04:28:39 10° S 04:32:36 40° WSW 04:36:34 10° NW
Cosmos 2219 Rocket 4.3 04:33:02 10° SSE 04:35:05 12° SE 04:37:07 10° ESE
Cosmos 2082 Rocket 3.8 04:32:27 10° NW 04:37:47 38° WSW 04:43:11 10° SSE
Cosmos 1703 Rocket 3.5 04:33:32 10° N 04:38:02 73° E 04:42:32 10° SSE
ARGOS Delta rocket 4.5 04:34:36 10° SSE 04:39:11 35° E 04:43:04 12° NNE
[s.n.45184] 3.3 04:38:59 10° WNW 04:42:00 63° SSW 04:45:06 10° SE
STARLINK-1205 3.3 04:38:59 10° WNW 04:42:00 63° SSW 04:45:06 10° SE
STARLINK-1220 3.3 04:39:29 10° WNW 04:42:30 62° SSW 04:45:35 10° SE
Ariane Rocket 3.1 04:37:57 10° SSE 04:43:02 56° E 04:48:04 10° N
SJ 16-02 3.4 04:45:08 12° ESE 04:45:08 12° ESE 04:45:47 10° ESE
[s.n.45206] 3.3 04:40:33 10° WNW 04:43:35 61° SSW 04:46:40 10° SE
STARLINK-1209 3.3 04:40:33 10° WNW 04:43:35 61° SSW 04:46:40 10° SE
Cosmos 1607 4.3 04:38:03 10° N 04:44:05 45° ENE 04:50:09 10° SE
[s.n.45188] 3.4 04:43:05 10° WNW 04:46:06 58° SSW 04:49:12 10° SE
STARLINK-1228 3.4 04:43:05 10° WNW 04:46:06 58° SSW 04:49:12 10° SE
STARLINK-1234 3.4 04:43:16 10° WNW 04:46:18 57° SSW 04:49:24 10° SE
STARLINK-1105 3.4 04:43:26 10° WNW 04:46:28 57° SSW 04:49:34 10° SE
[s.n.45218] 3.4 04:43:26 10° WNW 04:46:28 57° SSW 04:49:34 10° SE
[s.n.45201] 3.4 04:43:38 10° WNW 04:46:40 57° SSW 04:49:45 10° SE
STARLINK-1199 3.4 04:43:38 10° WNW 04:46:40 57° SSW 04:49:45 10° SE
[s.n.45233] 3.4 04:43:39 10° WNW 04:46:40 57° SSW 04:49:45 10° SE
STARLINK-1212 3.4 04:43:43 10° WNW 04:46:45 57° SSW 04:49:51 10° SE
STARLINK-1210 3.5 04:43:55 10° WNW 04:46:57 57° SSW 04:50:02 10° SE
[s.n.45204] 3.5 04:43:59 10° WNW 04:47:01 57° SSW 04:50:07 10° SE
STARLINK-1206 3.5 04:43:59 10° WNW 04:47:01 57° SSW 04:50:07 10° SE
[s.n.45219] 3.5 04:44:05 10° WNW 04:47:06 56° SSW 04:50:11 10° SE
[s.n.45211] 3.5 04:44:09 10° WNW 04:47:11 56° SSW 04:50:16 10° SE
[s.n.45230] 3.5 04:44:09 10° WNW 04:47:11 56° SSW 04:50:16 10° SE
STARLINK-1227 3.5 04:44:09 10° WNW 04:47:11 56° SSW 04:50:16 10° SE
[s.n.45232] 3.5 04:44:10 10° WNW 04:47:11 56° SSW 04:50:17 10° SE
[s.n.45229] 3.5 04:44:10 10° WNW 04:47:12 56° SSW 04:50:18 10° SE
STARLINK-1226 3.5 04:44:10 10° WNW 04:47:12 56° SSW 04:50:18 10° SE
[s.n.45205] 3.5 04:44:13 10° WNW 04:47:16 56° SSW 04:50:21 10° SE
STARLINK-1208 3.5 04:44:13 10° WNW 04:47:16 56° SSW 04:50:21 10° SE
[s.n.45216] 3.5 04:44:14 10° WNW 04:47:16 56° SSW 04:50:21 10° SE
STARLINK-1254 3.5 04:44:14 10° WNW 04:47:16 56° SSW 04:50:21 10° SE
STARLINK-1191 3.5 04:44:14 10° WNW 04:47:16 56° SSW 04:50:22 10° SE
STARLINK-1218 3.5 04:44:20 10° WNW 04:47:22 56° SSW 04:50:28 10° SE
[s.n.45209] 3.5 04:44:20 10° WNW 04:47:22 56° SSW 04:50:28 10° SE
STARLINK-1238 3.5 04:44:24 10° WNW 04:47:26 56° SSW 04:50:31 10° SE
[s.n.45222] 3.5 04:44:26 10° WNW 04:47:28 56° SSW 04:50:33 10° SE
STARLINK-1217 3.5 04:44:28 10° WNW 04:47:29 56° SSW 04:50:35 10° SE
STARLINK-1215 3.5 04:44:29 10° WNW 04:47:31 56° SSW 04:50:38 10° SE
[s.n.45236] 3.5 04:44:30 10° WNW 04:47:32 56° SSW 04:50:38 10° SE
STARLINK-1247 3.5 04:44:30 10° WNW 04:47:32 56° SSW 04:50:38 10° SE
STARLINK-1219 3.5 04:44:31 10° WNW 04:47:33 56° SSW 04:50:39 10° SE
[s.n.45212] 3.5 04:44:33 10° WNW 04:47:35 56° SSW 04:50:41 10° SE
STARLINK-1231 3.5 04:44:33 10° WNW 04:47:35 56° SSW 04:50:41 10° SE
STARLINK-1211 3.5 04:44:38 10° WNW 04:47:40 56° SSW 04:50:45 10° SE
[s.n.45208] 3.5 04:44:38 10° WNW 04:47:40 56° SSW 04:50:45 10° SE
[s.n.45220] 3.5 04:44:40 10° WNW 04:47:40 56° SSW 04:50:46 10° SE
STARLINK-1222 3.5 04:44:40 10° WNW 04:47:42 56° SSW 04:50:48 10° SE
[s.n.45228] 3.5 04:44:40 10° WNW 04:47:42 56° SSW 04:50:48 10° SE
[s.n.45213] 3.5 04:44:42 10° WNW 04:47:45 56° SSW 04:50:51 10° SE
STARLINK-1232 3.5 04:44:42 10° WNW 04:47:45 56° SSW 04:50:51 10° SE
[s.n.45231] 3.5 04:44:43 10° WNW 04:47:45 56° SSW 04:50:50 10° SE
STARLINK-1229 3.5 04:44:43 10° WNW 04:47:45 56° SSW 04:50:50 10° SE
[s.n.45223] 3.5 04:44:45 10° WNW 04:47:46 56° SSW 04:50:51 10° SE
[s.n.45202] 3.5 04:44:46 10° WNW 04:47:48 56° SSW 04:50:53 10° SE
STARLINK-1214 3.5 04:44:47 10° WNW 04:47:49 56° SSW 04:50:54 10° SE
[s.n.45224] 3.5 04:44:47 10° WNW 04:47:49 56° SSW 04:50:54 10° SE
[s.n.45237] 3.5 04:44:49 10° WNW 04:47:51 56° SSW 04:50:56 10° SE
STARLINK-1270 3.5 04:44:49 10° WNW 04:47:51 56° SSW 04:50:56 10° SE
[s.n.45217] 3.5 04:44:51 10° WNW 04:47:52 56° SSW 04:50:58 10° SE
STARLINK-1271 3.5 04:44:51 10° WNW 04:47:52 56° SSW 04:50:58 10° SE
[s.n.45207] 3.5 04:44:58 10° WNW 04:48:00 56° SSW 04:51:05 10° SE
STARLINK-1187 3.5 04:44:59 10° WNW 04:48:02 56° SSW 04:51:07 10° SE
STARLINK-1154 3.5 04:45:01 10° WNW 04:48:03 56° SSW 04:51:08 10° SE
[s.n.45198] 3.5 04:45:01 10° WNW 04:48:03 56° SSW 04:51:08 10° SE
[s.n.45215] 3.5 04:45:03 10° WNW 04:48:04 56° SSW 04:51:09 10° SE
STARLINK-1245 3.5 04:45:03 10° WNW 04:48:04 56° SSW 04:51:09 10° SE
STARLINK-1197 3.5 04:45:10 10° WNW 04:48:12 55° SSW 04:51:18 10° SE
[s.n.45199] 3.5 04:45:10 10° WNW 04:48:12 55° SSW 04:51:18 10° SE
STARLINK-1204 3.5 04:45:15 10° WNW 04:48:17 55° SSW 04:51:23 10° SE
[s.n.45221] 3.5 04:45:15 10° WNW 04:48:17 55° SSW 04:51:23 10° SE
STARLINK-1189 3.5 04:45:15 10° WNW 04:48:17 55° SSW 04:51:23 10° SE
[s.n.45182] 3.5 04:45:18 10° WNW 04:48:20 55° SSW 04:51:26 10° SE
STARLINK-1201 3.5 04:45:18 10° WNW 04:48:20 55° SSW 04:51:26 10° SE
[s.n.45210] 3.5 04:45:20 10° WNW 04:48:21 55° SSW 04:51:27 10° SE
STARLINK-1198 3.5 04:45:24 10° WNW 04:48:26 55° SSW 04:51:32 10° SE
[s.n.45200] 3.5 04:45:24 10° WNW 04:48:26 55° SSW 04:51:32 10° SE
STARLINK-1188 3.5 04:45:25 10° WNW 04:48:26 55° SSW 04:51:32 10° SE
STARLINK-1233 3.5 04:45:37 10° WNW 04:48:39 55° SSW 04:51:45 10° SE
[s.n.45214] 3.5 04:45:37 10° WNW 04:48:39 55° SSW 04:51:45 10° SE
[s.n.45225] 3.5 04:45:49 10° WNW 04:48:50 54° SSW 04:51:54 10° SE
STARLINK-1221 3.5 04:45:55 10° WNW 04:48:57 55° SSW 04:52:02 10° SE
SJ-6B 3.3 04:47:10 10° SSE 04:50:51 36° E 04:52:32 24° NE
STARLINK-1118 2.4 04:49:38 10° SW 04:52:21 88° SSE 04:52:58 49° ENE
Cosmos 1461 4.0 04:48:48 10° SW 04:52:44 40° WNW 04:56:05 12° N
Cosmos 1544 4.1 04:49:50 10° SSE 04:53:10 28° ESE 04:53:46 27° E
Cosmos 2360 Rocket 3.1 04:48:09 10° S 04:53:23 35° SE 04:56:11 23° ENE
MTI 4.4 04:54:01 34° E 04:54:34 37° ESE 04:57:32 10° S
Okean 1 3.2 04:51:23 10° N 04:55:23 85° E 04:59:28 10° S
Cosmos 1743 2.8 04:53:42 10° S 04:57:42 85° W 05:00:44 16° N
Cosmos 1092 Rocket 4.4 04:53:04 14° NNE 04:58:01 42° E 05:03:53 10° SSE
Cosmos 1777 Rocket 4.2 04:53:34 10° NNW 04:58:48 76° WSW 05:04:06 10° SSE
Cosmos 1980 Rocket 3.9 04:55:05 10° SW 05:00:04 31° WNW 05:05:01 10° NNW
Cosmos 1538 Rocket 4.1 04:55:01 10° SSW 05:00:30 85° WNW 05:04:35 18° NNE
FREGAT/IRIS 2.3 04:57:56 10° SSE 05:00:47 89° E 05:02:20 24° NNW
STARLINK-1098 4.1 04:57:51 10° SW 05:01:59 51° SSE 05:03:47 29° E
Okean 2 Rocket 3.5 05:02:15 10° S 05:06:42 45° ESE 05:08:08 34° ENE
STARLINK-1123 4.0 05:02:48 10° SW 05:06:58 54° SSE 05:08:33 33° E
ATLAS CENTAUR R/B 3.6 05:04:19 10° S 05:07:21 17° SE 05:09:07 14° ESE
ISS -1.8 05:05:26 10° SW 05:08:17 23° S 05:09:55 17° SE
Cosmos 405 Rocket 4.1 05:06:11 10° SSW 05:09:53 40° W 05:13:37 10° NNW
H-2A R/B 1.9 05:05:43 10° SSE 05:10:49 75° ENE 05:15:59 10° N
Mayak 0.1 05:11:02 24° ESE 05:11:14 24° ESE 05:14:38 10° SSE
STARLINK-1097 3.9 05:07:46 10° SW 05:11:57 58° SSE 05:13:20 37° E
SL-8 R/B 4.4 05:07:46 10° WSW 05:12:29 50° S 05:15:15 23° ESE
GP-B 3.6 05:09:04 10° S 05:13:33 62° W 05:17:59 10° NNW
STARLINK-1066 2.8 05:11:35 10° WSW 05:14:34 63° NW 05:14:38 63° NNW
STARLINK-1081 2.8 05:11:47 10° WSW 05:14:45 63° NW 05:14:50 62° NNW
STARLINK-1070 2.9 05:12:02 10° WSW 05:15:00 62° NW 05:15:02 62° NNW
STARLINK-1069 2.9 05:12:16 10° WSW 05:15:14 62° NW 05:15:18 62° NNW
STARLINK-1085 2.9 05:12:29 10° WSW 05:15:27 62° NW 05:15:30 61° NNW
STARLINK-1086 2.9 05:12:43 10° WSW 05:15:41 61° NW 05:15:43 61° NW
STARLINK-1095 2.9 05:12:56 10° WSW 05:15:55 61° NW 05:15:56 61° NW
STARLINK-1077 2.9 05:13:10 10° WSW 05:16:08 61° NW 05:16:09 61° NW
Cosmos 1680 Rocket 3.9 05:11:02 10° S 05:16:14 47° ESE 05:17:58 35° ENE
USA 186 1.9 05:13:57 10° S 05:16:01 48° SW 05:16:01 48° SW
STARLINK-1075 2.9 05:13:22 10° WSW 05:16:21 60° NW 05:16:21 60° NW
STARLINK-1093 2.9 05:13:36 10° WSW 05:16:34 60° NW 05:16:34 60° NW
STARLINK-1074 3.0 05:13:50 10° WSW 05:16:49 60° NW 05:16:49 60° NW
STARLINK-1099 3.8 05:12:46 10° SW 05:16:58 62° SSE 05:18:08 43° E
STARLINK-1087 3.0 05:14:04 10° WSW 05:17:01 59° NW 05:17:01 59° NW
STARLINK-1088 3.0 05:14:18 10° WSW 05:17:13 59° NW 05:17:13 59° NW
STARLINK-1115 3.0 05:14:31 10° WSW 05:17:27 58° NW 05:17:27 58° NW
STARLINK-1076 3.0 05:14:44 10° WSW 05:17:40 58° NW 05:17:40 58° NW
STARLINK-1092 3.0 05:14:58 10° WSW 05:17:53 58° NW 05:17:53 58° NW
STARLINK-1080 3.0 05:15:11 10° WSW 05:18:05 57° NW 05:18:05 57° NW
STARLINK-1090 3.0 05:15:25 10° WSW 05:18:19 57° NW 05:18:19 57° NW
STARLINK-1089 3.1 05:15:39 10° WSW 05:18:32 57° NW 05:18:32 57° NW
STARLINK-1107 3.1 05:15:53 10° WSW 05:18:45 56° NW 05:18:45 56° NW
Cosmos 2237 4.5 05:13:11 10° SSW 05:18:51 53° ESE 05:21:00 35° ENE
STARLINK-1109 3.1 05:16:06 10° WSW 05:18:58 56° NW 05:18:58 56° NW
STARLINK-1091 3.1 05:16:19 10° WSW 05:19:11 56° NW 05:19:11 56° NW
STARLINK-1072 3.1 05:16:32 10° WSW 05:19:23 55° NW 05:19:23 55° NW
STARLINK-1096 3.1 05:16:47 10° WSW 05:19:37 55° NW 05:19:37 55° NW
STARLINK-1079 3.1 05:17:00 10° WSW 05:19:50 54° NW 05:19:50 54° NW
STARLINK-1116 3.2 05:17:12 10° WSW 05:20:01 54° NW 05:20:01 54° NW
Okean 3 3.4 05:19:18 43° NNE 05:20:25 60° E 05:24:39 10° SSE
STARLINK-1094 3.2 05:17:40 10° WSW 05:20:29 53° NW 05:20:29 53° NW
Resurs 01 Rocket 2.8 05:16:52 10° SE 05:19:47 26° ESE 05:19:47 26° ESE
STARLINK-1124 3.5 05:17:52 10° WSW 05:20:49 44° NW 05:20:49 44° NW
STARLINK-1117 3.2 05:17:54 10° WSW 05:20:41 53° NW 05:20:41 53° NW
STARLINK-1078 3.2 05:18:07 10° WSW 05:20:54 52° NW 05:20:54 52° NW
STARLINK-1108 3.2 05:18:20 10° WSW 05:21:07 52° NW 05:21:07 52° NW
STARLINK-1071 3.3 05:18:35 10° WSW 05:21:21 52° NW 05:21:21 52° NW
STARLINK-1110 3.3 05:18:48 10° WSW 05:21:34 51° NW 05:21:34 51° NW
STARLINK-1104 3.7 05:17:43 10° SW 05:21:57 67° SSE 05:22:54 49° E
STARLINK-1122 3.3 05:19:15 10° WSW 05:21:59 51° WNW 05:21:59 51° WNW
STARLINK-1126 3.3 05:19:28 10° WSW 05:22:12 50° WNW 05:22:12 50° WNW
STARLINK-1082 3.3 05:19:41 10° WSW 05:22:25 50° WNW 05:22:25 50° WNW
STARLINK-1100 3.3 05:19:55 10° WSW 05:22:38 49° WNW 05:22:38 49° WNW
STARLINK-1083 3.4 05:20:09 10° WSW 05:22:51 49° WNW 05:22:51 49° WNW
STARLINK-1125 3.4 05:20:22 10° WSW 05:23:03 49° WNW 05:23:03 49° WNW
STARLINK-1144 3.7 05:22:42 10° SW 05:26:56 72° SSE 05:27:41 56° E
COSMOS 2428 4.1 05:23:34 10° S 05:28:13 24° SE 05:29:40 22° ESE
Cosmos 2221 Rocket 3.5 05:27:04 30° N 05:29:15 85° E 05:33:46 10° S
ARGOS 3.1 05:25:00 10° SSE 05:30:28 89° WSW 05:35:55 10° NNW
STARLINK-1103 3.6 05:27:40 10° SW 05:31:55 77° SE 05:32:28 64° E
STARLINK-1128 3.5 05:28:28 10° SW 05:32:44 80° SSE 05:33:16 65° E
SL-16 R/B 2.8 05:28:57 10° SSW 05:34:31 54° WNW 05:37:43 25° N
Sich 1 Rocket 4.3 05:31:51 10° SSW 05:36:14 53° W 05:38:36 25° NNW
STARLINK-1101 3.5 05:32:39 10° SW 05:36:54 83° SE 05:37:15 73° E
STARLINK-1113 3.5 05:33:25 10° SW 05:37:42 85° SE 05:38:03 74° ENE
COSMOS 2487 3.4 05:40:40 39° SSE 05:40:40 39° SSE 05:43:00 10° SSE
Cosmos 1674 Rocket 4.3 05:42:04 39° ESE 05:42:04 39° ESE 05:45:20 10° SSE
SL-08 RB Rocket 3.7 05:36:41 10° SSE 05:41:26 84° WSW 05:43:40 31° NNW
STARLINK-1102 3.5 05:37:37 10° SW 05:41:52 89° SE 05:42:01 83° ENE
Cosmos 1627 Rocket 4.4 05:38:59 33° N 05:41:52 71° E 05:48:08 10° SSE
STARLINK-1119 3.5 05:38:25 10° SW 05:42:41 89° NNW 05:42:49 83° NE
Cosmos 990 Rocket 4.0 05:43:46 54° ENE 05:43:47 54° ENE 05:48:57 10° SSE
Cosmos 1975 4.0 05:41:10 10° SSW 05:45:05 41° W 05:46:44 28° NW
Cosmos 2112 Rocket 4.0 05:40:40 10° SSW 05:46:05 72° ESE 05:47:03 57° NE
Cosmos 1553 Rocket 4.4 05:39:59 10° S 05:46:14 46° ESE 05:47:19 43° ENE
STARLINK-1111 3.5 05:42:37 10° WSW 05:46:49 85° NW 05:46:49 85° NW
STARLINK-1114 3.6 05:43:25 10° WSW 05:47:39 82° NW 05:47:39 82° NW
STARLINK-1073 3.7 05:47:34 10° WSW 05:51:34 75° W 05:51:34 75° W
STARLINK-1130 (DARKSAT) 3.7 05:48:23 10° WSW 05:52:24 73° WNW 05:52:24 73° WNW
SPOT 3 Rocket 3.6 05:49:25 10° SSE 05:54:41 81° WSW 05:57:02 34° NNW
CZ-2C R/B 3.9 05:49:28 10° S 05:54:48 55° WSW 06:00:20 10° NNW
Cosmos 1937 Rocket 4.2 05:57:23 39° ESE 05:57:23 39° ESE 06:00:59 10° SSE
STARLINK-1121 3.9 05:52:35 10° WSW 05:56:22 65° W 05:56:22 65° W
STARLINK-1084 3.9 05:53:25 10° WSW 05:57:13 64° W 05:57:13 64° W
Meteor 2-4 Rocket 4.0 05:54:15 20° NNW 05:58:23 69° WSW 06:04:03 10° S
STARLINK-1106 4.1 05:57:35 10° WSW 06:01:10 57° W 06:01:10 57° W
CZ-4C R/B 1.9 05:56:34 10° SW 06:02:10 73° WNW 06:02:35 69° NNW
Cosmos 2026 Rocket 3.9 06:00:31 38° N 06:03:02 86° W 06:09:17 10° S
Cosmos 44 4.4 06:06:47 36° SE 06:06:47 36° SE 06:10:03 10° SE
Cosmos 158 Rocket 3.7 05:59:45 10° SSW 06:04:42 84° ESE 06:04:42 84° ESE
Okean 1 Rocket 3.8 06:01:35 10° S 06:05:02 46° SSE 06:05:02 46° SSE
STARLINK-1112 4.3 06:02:35 10° WSW 06:05:57 50° W 06:05:57 50° W
EO 1 Del DPAF 4.0 06:08:28 50° SW 06:08:28 50° SW 06:11:31 10° SSW
Cosmos 2322 3.6 06:06:52 10° SSW 06:12:40 79° ESE 06:12:59 76° ENE
Cosmos 2322 Rocket 3.6 06:08:20 10° SW 06:13:16 31° WNW 06:15:27 24° NW
USA 215 3.5 06:11:20 44° E 06:13:17 60° SSE 06:19:48 10° SW
BREEZE-M DEB (TANK) 3.6 06:10:17 10° WSW 06:13:41 89° N 06:14:12 74° ENE
Cosmos 2333 4.1 06:07:57 10° SSW 06:13:48 73° ESE 06:14:04 72° E
Cosmos 2333 Rocket 2.5 06:08:14 10° SSW 06:13:57 55° ESE 06:14:05 55° ESE
Thor Agena Rocket 3.8 06:15:31 56° NW 06:16:05 60° WNW 06:21:12 10° SSW
S3M 4.0 06:13:48 10° S 06:19:58 61° E 06:19:58 61° E
Cosmos 2219 Rocket 2.4 06:14:44 10° SSW 06:20:12 57° SE 06:20:12 57° SE
SJ 16-02 2.0 06:22:03 54° SW 06:22:03 54° SW 06:25:59 10° SSE
Cosmos 2237 Rocket 3.6 06:18:18 10° S 06:23:04 26° SE 06:23:10 26° SE
Cosmos 1655 Rocket 3.9 06:27:20 69° E 06:27:20 69° E 06:33:25 10° SSE
MetOp-B 4.5 06:21:55 10° SSE 06:26:18 56° SE 06:26:18 56° SE
Timation 2 Rocket 4.5 06:32:12 46° ESE 06:32:12 46° ESE 06:36:43 10° SSE
Cosmos 1417 Rocket 4.3 06:24:57 10° S 06:31:13 89° W 06:31:33 81° N
Meteor 1-15 Rocket 4.2 06:26:10 10° S 06:31:59 88° SW 06:31:59 88° SW
Cosmos 2360 Rocket 3.1 06:32:08 10° SW 06:37:24 39° WNW 06:37:56 38° WNW
Spot 2 Rocket 4.2 06:33:45 10° SSE 06:37:24 48° SSE 06:37:24 48° SSE
ISS -0.6 06:42:09 10° SW 06:42:51 15° SW 06:42:51 15° SW
Cosmos 1898 Rocket 4.5 06:45:10 37° WNW 06:46:31 45° WSW 06:51:41 10° S
Mayak 0.6 06:47:36 29° WSW 06:47:36 29° WSW 06:50:27 10° SSW
ATLAS CENTAUR R/B 2.8 06:42:14 10° SW 06:45:18 42° SW 06:45:18 42° SW
Cosmos 1066 Rocket 4.4 06:47:52 72° SSW 06:47:52 72° SSW 06:53:05 10° S
Cosmos 2297 Rocket 4.4 06:57:53 14° SE 06:57:53 14° SE 06:58:43 10° SE
Resurs 01 Rocket 3.3 06:53:18 10° S 06:57:14 30° WSW 06:57:21 30° WSW
NOSS 0 Rocket 4.2 06:51:29 10° SSW 06:57:05 61° SSE 06:57:05 61° SSE
SL-16 R/B 3.9 07:07:06 10° S 07:11:13 24° SE 07:11:13 24° SE
Terra 3.9 07:07:12 10° SSE 07:08:43 20° SSE 07:08:43 20° SSE
Cosmos 2227 Rocket 4.3 07:16:27 17° SE 07:16:27 17° SE 07:17:50 10° SE
COSMOS 2428 3.4 07:07:15 10° SSW 07:11:40 49° WSW 07:11:40 49° WSW
ERS-1 Rocket 4.4 07:19:13 10° S 07:22:05 34° S 07:22:05 34° S
USA 215 4.3 07:58:42 35° W 07:58:42 35° W 08:02:44 10° WSW
Cosmos 2333 Rocket 4.2 07:53:16 10° SW 07:56:05 21° WSW 07:56:05 21° WSW
Cosmos 2219 Rocket 4.3 07:59:34 10° SW 08:01:55 19° WSW 08:01:55 19° WSW
Cosmos 2237 Rocket 3.7 08:01:52 10° SSW 08:04:58 32° SW 08:04:58 32° SW
ADEOS II 4.5 08:37:35 15° SE 08:37:35 15° SE 08:40:08 10° SSE
Cosmos 2297 Rocket 3.7 08:39:41 32° SSW 08:39:41 32° SSW 08:43:09 10° SSE
Terra 4.3 08:45:47 10° SSW 08:47:36 17° SW 08:47:36 17° SW
CZ-2D R/B 3.7 08:51:34 32° SSE 08:51:34 32° SSE 08:54:44 10° S
SL-16 R/B 4.0 08:50:38 10° SSW 08:53:04 26° SW 08:53:04 26° SW
Cosmos 2227 Rocket 3.8 08:58:16 30° SSW 08:58:16 30° SSW 09:01:55 10° S
Resurs 1-4 Rocket 3.8 09:08:04 30° S 09:08:04 30° S 09:10:47 10° S
Cosmos 2263 Rocket 3.6 09:40:51 35° SE 09:40:51 35° SE 09:44:05 10° SSE
NOSS 3-2 (A) 4.1 09:43:42 68° SSW 09:43:42 68° SSW 09:50:50 10° SSE
NOSS 3-2 (C) 4.1 09:46:57 76° SE 09:46:57 76° SE 09:53:49 10° SE
ARIANE 5 R/B 3.9 09:55:45 36° SSE 09:55:45 36° SSE 09:59:12 10° S
CENTAUR R/B 2.9 10:01:19 74° SE 10:01:19 74° SE 10:07:33 10° SE
IDEFIX/ARIANE 42P 4.4 10:06:17 24° ESE 10:07:03 25° ESE 10:11:15 10° S
ATLAS 3B R/B 2.9 10:12:27 71° E 10:12:27 71° E 10:19:20 10° SE
ADEOS II 3.4 10:18:32 34° SSW 10:18:32 34° SSW 10:21:31 10° SSW
CZ-2D R/B 4.4 10:32:53 15° SW 10:32:53 15° SW 10:34:10 10° SW
Meteor 2-10 Rocket 4.2 10:25:15 10° S 10:30:05 58° SSE 10:30:05 58° SSE
SL-8 Rocket 4.1 10:56:29 64° NE 10:57:06 69° E 11:03:28 10° SSE
Cosmos 2218 Rocket 4.3 10:58:36 53° NE 10:59:33 60° E 11:05:45 10° SSE
Cosmos 1420 Rocket 4.3 11:01:53 66° SE 11:01:53 66° SE 11:06:29 10° SSE
Cosmos 1452 Rocket 3.8 11:06:21 64° E 11:06:21 64° E 11:11:25 10° SSE
Exosat Rocket 3.6 11:02:09 10° SSW 11:07:11 72° SSE 11:07:11 72° SSE
CZ-2C R/B 4.0 11:07:24 15° ENE 11:10:30 30° ESE 11:14:33 10° S
MOZ.5/SAFIR/RUBIN 5/SL-8 4.2 11:07:05 10° SSE 11:11:02 61° SSE 11:11:02 61° SSE
ATLAS 5 CENTAUR R/B 2.5 11:09:27 10° SSW 11:14:53 54° SE 11:19:30 10° NE
Cosmos 1844 Rocket 2.5 11:19:28 82° W 11:19:33 82° WSW 11:25:16 10° SSE
ERS-2 3.6 11:18:32 10° SSE 11:21:21 36° ESE 11:21:21 36° ESE
Cosmos 2263 Rocket 3.8 11:22:32 21° SW 11:22:55 21° SW 11:27:10 10° S
Cosmos 2341 Rocket 4.1 11:24:24 56° W 11:24:42 57° WSW 11:31:05 10° S
CBERS 1 LM4 rocket 4.3 11:26:40 79° SSW 11:26:40 79° SSW 11:31:24 10° SSW
SL-16 R/B 2.5 11:21:04 10° SSE 11:27:21 84° ENE 11:28:47 56° N
Lacrosse 5 rocket 2.2 11:30:55 45° SSE 11:30:55 45° SSE 11:33:48 10° SE
Cosmos 1339 Rocket 4.3 11:27:11 10° SSW 11:33:25 73° W 11:34:28 60° NNW
UNK 3.8 11:29:59 10° S 11:34:23 68° SW 11:34:23 68° SW
MSX 3.7 11:34:20 52° N 11:35:51 82° WNW 11:41:44 10° SSW
Cosmos 1959 Rocket 4.4 11:35:36 57° NW 11:36:54 75° W 11:43:19 10° S
Cosmos 1727 Rocket 4.0 11:30:56 10° S 11:37:22 80° E 11:41:00 27° NNE
Cosmos 1867 3.4 11:37:14 73° NW 11:37:47 86° WSW 11:43:14 10° SSE
COSMOS 2406 3.9 11:36:56 10° SSW 11:42:38 54° ESE 11:48:15 10° NE
PSLV R/B 3.6 11:43:44 68° SW 11:43:44 68° SW 11:47:44 10° SSW
Cosmos 1833 Rocket 4.4 11:39:34 10° S 11:44:42 33° SE 11:49:47 10° ENE
IDEFIX/ARIANE 42P 3.0 11:47:05 43° WSW 11:47:05 43° WSW 11:51:25 10° SSW
Meteor 2-2 Rocket 4.3 11:40:26 10° S 11:46:23 82° ESE 11:50:31 21° NNE
CENTAUR R/B 4.1 11:48:29 20° WSW 11:51:58 28° SW 11:57:37 10° SSE
Cosmos 1076 Rocket 3.6 11:51:19 56° NNE 11:52:03 71° E 11:56:24 10° SSE
USA 234 3.2 11:46:34 10° SE 11:53:14 80° NE 11:55:50 40° NW
H-2A R/B 3.8 11:50:11 10° NE 11:54:16 41° ESE 11:58:17 10° S
SeaSat 1 3.4 11:49:48 10° SE 11:54:32 42° ENE 11:56:55 25° NNE
BREEZE M DEB (TANK) 3.3 11:54:19 33° SW 11:55:24 40° SSW 11:57:58 10° SE
